Flag for El Salvador Weather past 2 weeks in San Salvador, El Salvador

Now
84 °F

Passing clouds.


Feels Like: 86 °F
Forecast: N/A
Wind: 10 mph from North

Location: San Salvador / Ilopango

Current Time: Jan 26, 2015 at 5:30:19 PM

Latest Report: Jan 26, 2015 at 3:50 PM


Visibility: N/A

Pressure: 29.95 "Hg

Humidity: 51%

Dew point: 64 °F

Location of San SalvadorLocation

Historic Weather in San Salvador — Graph

°F

San Salvador temperature yesterday

Maximum temperature yesterday: 86 °F (at 12:50 PM)
Minimum temperature yesterday: 64 °F (at 5:50 AM)
Average temperature yesterday: 74 °F

Past Weeks' High & Low Weather Summary

 TemperatureHumidityPressure
High91 °F (Jan 12, 1:50 PM)94% (Jan 17, 6:50 AM)30.18 "Hg (Jan 17, 6:50 AM)
Low63 °F (Jan 26, 5:50 AM)46% (Jan 14, 1:50 PM)29.89 "Hg (Jan 14, 3:50 PM)
Average77 °F68%30.02 "Hg
* Reported Jan 11 3:50 PM — Jan 26 3:50 PM, San Salvador, Weather by CustomWeather, © 2014

Note: Actual official high and low records may vary slightly from our data, if they occured in-between our weather recording intervals... More about our weather records

Advertising

San Salvador weather history for previous 24 hours

 ConditionsComfort  
Time TempWeatherWind HumidityBarometerVisibility
3:50 PM
Jan 26
84 °FPassing clouds.10 mph51%29.95 "HgN/A
2:50 PM86 °FPassing clouds.9 mph49%29.98 "HgN/A
1:50 PM86 °FPassing clouds.12 mph49%29.98 "HgN/A
12:50 PM86 °FPassing clouds.14 mph49%30.01 "HgN/A
11:50 AM82 °FSunny.16 mph55%30.04 "Hg10 mi
10:50 AM81 °FSunny.14 mph58%30.07 "Hg10 mi
9:50 AM75 °FSunny.14 mph61%30.09 "Hg10 mi
8:50 AM72 °FSunny.18 mph69%30.07 "Hg10 mi
7:50 AM64 °FSunny.16 mph78%30.07 "Hg10 mi
6:50 AM63 °FSunny.7 mph83%30.04 "Hg10 mi
5:50 AM63 °FClear.7 mph83%30.04 "Hg10 mi
11:50 PM
Jan 25
64 °FClear.7 mph83%30.04 "Hg10 mi
10:50 PM66 °FClear.7 mph78%30.04 "Hg10 mi
9:50 PM68 °FClear.3 mph73%30.04 "Hg10 mi
8:50 PM70 °FClear.6 mph73%30.04 "Hg10 mi
7:50 PM70 °FClear.8 mph73%29.95 "Hg10 mi
6:50 PM73 °FClear.7 mph69%29.95 "Hg10 mi
5:50 PM77 °FSunny.9 mph61%29.98 "Hg10 mi
Weather by CustomWeather, © 2014

See weather overviewHow to use our weather pages